User: anonymous   Login
Location: Unspecified
(0.0000°N, 0.0000°E)
Time: 07:30:52
(UTC+00:00)
Language:

Cosmos 1574 - Orbit

View from above orbital plane
View from above orbital plane
View from above satellite
View from above satellite

Ground track
Ground track

The orbit data is extracted from the following two-line orbital elements,

1 15055U 84062A   17148.73756664 +.00000014 +00000-0 -95660-6 0  9999
2 15055 082.9570 359.9335 0025992 268.2644 144.6970 13.74286848651582
Epoch (UTC): 28 May 2017 17:42:05
Eccentricity: 0.0025992
inclination: 82.9570°
perigee height: 965 km
apogee height: 1003 km
right ascension of ascending node: 359.9335°
argument of perigee: 268.2644°
revolutions per day: 13.74286848
mean anomaly at epoch: 144.6970°
orbit number at epoch: 65158

The dashed part of the orbit path shows where the satellite is in the earth's shadow,  

DLR